G8YN6G Weather Reports


time (UTC)temp
C
wind
direction
speed
KPH
gust
KPH
rain 1hr
cm
rain 24hr
cm
rain mn
cm
humidity
%
barometer
mb
20260505053310 17 163 9.7 19.3 0.00 0.00 0.00 52 1004.0
20260505052410 17 184 4.8 9.7 0.00 0.00 0.00 50 1004.0
20260505051412 17 170 8.0 12.9 0.00 0.00 0.00 50 1004.4
20260505050410 17 159 9.7 14.5 0.00 0.00 0.00 49 1004.4
20260505041510 16 157 8.0 12.9 0.00 0.00 0.00 50 1004.4
20260505040509 16 170 8.0 11.3 0.00 0.00 0.00 51 1004.4
20260505035513 16 161 8.0 11.3 0.00 0.00 0.00 53 1004.4
20260505033612 15 163 4.8 8.0 0.00 0.00 0.00 53 1004.4
20260505032612 15 157 8.0 12.9 0.00 0.00 0.00 57 1004.4
20260505031614 14 177 1.6 6.4 0.00 0.00 0.00 56 1004.4
20260505030616 15 157 3.2 4.8 0.00 0.00 0.00 57 1004.4
20260505025612 15 135 0.0 3.2 0.00 0.00 0.00 56 1004.4
20260505024614 15 202 0.0 1.6 0.00 0.00 0.00 53 1004.4
20260505023712 15 157 0.0 0.0 0.00 0.00 0.00 53 1004.4
20260505022714 16 157 3.2 4.8 0.00 0.03 0.00 53 1004.7
20260505021812 16 180 0.0 0.0 0.00 0.03 0.00 50 1004.7
20260505020812 16 157 1.6 4.8 0.00 0.03 0.00 51 1005.0
20260505014912 16 157 0.0 0.0 0.00 0.05 0.00 50 1004.7
20260505013914 16 157 0.0 0.0 0.00 0.05 0.00 48 1004.7
20260505012913 17 157 0.0 0.0 0.00 0.05 0.00 48 1004.7
20260505010013 17 337 0.0 0.0 0.00 0.08 0.00 48 1004.7
20260505005111 17 337 0.0 0.0 0.00 0.08 0.00 46 1004.7
20260505004114 19 337 3.2 4.8 0.00 0.10 0.00 42 1004.7
20260505002213 20 142 0.0 0.0 0.00 0.10 0.00 40 1004.7
20260505001214 21 157 0.0 0.0 0.00 0.10 0.00 38 1004.7
20260504235214 22 157 0.0 0.0 0.00 0.10 0.00 36 1004.7
20260504234313 22 165 0.0 4.8 0.00 0.10 0.00 35 1004.4
20260504233312 22 225 1.6 4.8 0.00 0.10 0.00 33 1004.4
20260504232314 23 206 3.2 6.4 0.00 0.10 0.00 34 1004.4
20260504231313 22 188 3.2 6.4 0.00 0.10 0.00 32 1004.4
20260504230412 23 231 6.4 8.0 0.00 0.10 0.00 32 1004.0
20260504225415 23 187 1.6 4.8 0.00 0.10 0.00 33 1004.4
20260504224513 23 176 4.8 8.0 0.00 0.10 0.00 32 1004.4
20260504222512 23 179 4.8 11.3 0.00 0.10 0.00 34 1004.7
20260504221513 23 200 4.8 9.7 0.00 0.10 0.00 34 1004.4
20260504215531 25 230 1.6 8.0 0.00 0.10 0.00 34 1004.6
20260504214612 24 276 1.6 6.4 0.00 0.10 0.00 34 1004.7
20260504212614 24 231 3.2 4.8 0.00 0.10 0.00 34 1005.1
20260504211713 23 229 3.2 6.4 0.00 0.10 0.00 35 1005.1
20260504210812 23 202 1.6 4.8 0.00 0.10 0.00 35 1005.1
20260504205813 23 261 3.2 6.4 0.00 0.10 0.00 37 1005.1
20260504204812 23 270 3.2 4.8 0.00 0.10 0.00 37 1005.1
20260504203912 23 248 0.0 4.8 0.00 0.10 0.00 38 1005.4
20260504202914 22 275 4.8 8.0 0.00 0.10 0.00 37 1005.4
20260504201913 23 280 8.0 14.5 0.00 0.10 0.00 39 1005.4
20260504200915 23 344 0.0 1.6 0.00 0.10 0.00 38 1005.7
20260504194913 23 292 4.8 11.3 0.00 0.10 0.00 40 1005.4
20260504193913 23 230 4.8 11.3 0.00 0.10 0.00 40 1005.7
20260504193013 22 194 3.2 9.7 0.00 0.10 0.00 39 1006.1
20260504192012 22 239 1.6 4.8 0.00 0.10 0.00 39 1006.1
20260504191112 21 255 4.8 11.3 0.00 0.10 0.00 40 1006.1
20260504190113 21 272 1.6 4.8 0.00 0.10 0.00 40 1006.1
20260504185212 22 260 4.8 14.5 0.00 0.10 0.00 41 1006.4
20260504183313 22 199 0.0 6.4 0.00 0.10 0.00 42 1006.4
20260504182315 21 254 3.2 9.7 0.00 0.10 0.00 42 1006.5
20260504180314 21 258 4.8 9.7 0.00 0.10 0.00 43 1006.7
20260504175312 21 280 4.8 9.7 0.00 0.10 0.00 43 1007.0
20260504174315 21 245 4.8 6.4 0.00 0.10 0.00 43 1007.1
20260504173315 20 229 0.0 1.6 0.00 0.10 0.00 42 1007.1
20260504172312 20 270 1.6 6.4 0.00 0.10 0.00 43 1007.1
20260504171313 20 295 6.4 9.7 0.00 0.10 0.00 44 1007.1
20260504160314 18 269 6.4 19.3 0.00 0.10 0.00 45 1007.8
20260504150511 17 167 12.9 22.5 0.00 0.10 0.00 48 1007.8
20260504140514 15 203 11.3 20.9 0.00 0.10 0.00 50 1008.5
20260504110714 11 169 6.4 12.9 0.00 0.10 0.00 60 1008.5
20260504081814 11 171 6.4 9.7 0.00 0.10 0.00 58 1008.8
20260504080814 11 201 8.0 14.5 0.00 0.10 0.00 57 1008.8